Year,Month,Day,Hour,Minute,Value (Times are PST for temperature in C)
2016,07,28,00,00,19.70
2016,07,28,00,01,19.60
2016,07,28,00,02,19.60
2016,07,28,00,03,19.60
2016,07,28,00,04,19.60
2016,07,28,00,05,19.60
2016,07,28,00,06,19.60
2016,07,28,00,07,19.60
2016,07,28,00,08,19.60
2016,07,28,00,09,19.60
2016,07,28,00,10,19.60
2016,07,28,00,11,19.60
2016,07,28,00,12,19.60
2016,07,28,00,13,19.60
2016,07,28,00,14,19.60
2016,07,28,00,15,19.60
2016,07,28,00,16,19.60
2016,07,28,00,17,19.60
2016,07,28,00,18,19.60
2016,07,28,00,19,19.60
2016,07,28,00,20,19.60
2016,07,28,00,21,19.60
2016,07,28,00,22,19.60
2016,07,28,00,23,19.60
2016,07,28,00,24,19.60
2016,07,28,00,25,19.60
2016,07,28,00,26,19.60
2016,07,28,00,27,19.60
2016,07,28,00,28,19.60
2016,07,28,00,29,19.50
2016,07,28,00,30,19.50
2016,07,28,00,31,19.50
2016,07,28,00,32,19.40
2016,07,28,00,33,19.40
2016,07,28,00,34,19.40
2016,07,28,00,35,19.30
2016,07,28,00,36,19.30
2016,07,28,00,37,19.30
2016,07,28,00,38,19.20
2016,07,28,00,39,19.20
2016,07,28,00,40,19.20
2016,07,28,00,41,19.10
2016,07,28,00,42,19.10
2016,07,28,00,43,19.10
2016,07,28,00,44,19.10
2016,07,28,00,45,19.10
2016,07,28,00,46,19.10
2016,07,28,00,47,19.10
2016,07,28,00,48,19.00
2016,07,28,00,49,18.90
2016,07,28,00,50,18.90
2016,07,28,00,51,18.90
2016,07,28,00,52,18.90
2016,07,28,00,53,18.90
2016,07,28,00,54,18.80
2016,07,28,00,55,18.80
2016,07,28,00,56,18.80
2016,07,28,00,57,18.70
2016,07,28,00,58,18.70
2016,07,28,00,59,18.70
2016,07,28,01,00,18.70
2016,07,28,01,01,18.60
2016,07,28,01,02,18.60
2016,07,28,01,03,18.60
2016,07,28,01,04,18.60
2016,07,28,01,05,18.50
2016,07,28,01,06,18.50
2016,07,28,01,07,18.50
2016,07,28,01,08,18.40
2016,07,28,01,09,18.40
2016,07,28,01,10,18.40
2016,07,28,01,11,18.40
2016,07,28,01,12,18.30
2016,07,28,01,13,18.30
2016,07,28,01,14,18.30
2016,07,28,01,15,18.30
2016,07,28,01,16,18.20
2016,07,28,01,17,18.20
2016,07,28,01,18,18.20
2016,07,28,01,19,18.20
2016,07,28,01,20,18.20
2016,07,28,01,21,18.20
2016,07,28,01,22,18.10
2016,07,28,01,23,18.10
2016,07,28,01,24,18.10
2016,07,28,01,25,18.10
2016,07,28,01,26,17.90
2016,07,28,01,27,17.90
2016,07,28,01,28,17.90
2016,07,28,01,29,17.90
2016,07,28,01,30,17.90
2016,07,28,01,31,17.80
2016,07,28,01,32,17.80
2016,07,28,01,33,17.80
2016,07,28,01,34,17.70
2016,07,28,01,35,17.70
2016,07,28,01,36,17.70
2016,07,28,01,37,17.60
2016,07,28,01,38,17.60
2016,07,28,01,39,17.60
2016,07,28,01,40,17.60
2016,07,28,01,41,17.50
2016,07,28,01,42,17.50
2016,07,28,01,43,17.50
2016,07,28,01,44,17.50
2016,07,28,01,45,17.50
2016,07,28,01,46,17.40
2016,07,28,01,47,17.40
2016,07,28,01,48,17.40
2016,07,28,01,49,17.40
2016,07,28,01,50,17.40
2016,07,28,01,51,17.40
2016,07,28,01,52,17.30
2016,07,28,01,53,17.30
2016,07,28,01,54,17.30
2016,07,28,01,55,17.30
2016,07,28,01,56,17.30
2016,07,28,01,57,17.30
2016,07,28,01,58,17.30
2016,07,28,01,59,17.30
2016,07,28,02,00,17.30
2016,07,28,02,01,17.20
2016,07,28,02,02,17.20
2016,07,28,02,03,17.20
2016,07,28,02,04,17.20
2016,07,28,02,05,17.20
2016,07,28,02,06,17.10
2016,07,28,02,07,17.10
2016,07,28,02,08,17.10
2016,07,28,02,09,17.10
2016,07,28,02,10,17.10
2016,07,28,02,11,17.10
2016,07,28,02,12,17.10
2016,07,28,02,13,17.10
2016,07,28,02,14,17.00
2016,07,28,02,15,17.00
2016,07,28,02,16,17.00
2016,07,28,02,17,17.00
2016,07,28,02,18,17.00
2016,07,28,02,19,17.00
2016,07,28,02,20,17.00
2016,07,28,02,21,17.00
2016,07,28,02,22,17.00
2016,07,28,02,23,16.90
2016,07,28,02,24,16.90
2016,07,28,02,25,16.90
2016,07,28,02,26,16.90
2016,07,28,02,27,16.90
2016,07,28,02,28,16.90
2016,07,28,02,29,16.90
2016,07,28,02,30,16.90
2016,07,28,02,31,16.90
2016,07,28,02,32,16.90
2016,07,28,02,33,16.80
2016,07,28,02,34,16.80
2016,07,28,02,35,16.80
2016,07,28,02,36,16.80
2016,07,28,02,37,16.80
2016,07,28,02,38,16.80
2016,07,28,02,39,16.80
2016,07,28,02,40,16.80
2016,07,28,02,41,16.80
2016,07,28,02,42,16.80
2016,07,28,02,43,16.80
2016,07,28,02,44,16.80
2016,07,28,02,45,16.80
2016,07,28,02,46,16.80
2016,07,28,02,47,16.70
2016,07,28,02,48,16.70
2016,07,28,02,49,16.70
2016,07,28,02,50,16.70
2016,07,28,02,51,16.70
2016,07,28,02,52,16.60
2016,07,28,02,53,16.50
2016,07,28,02,54,16.40
2016,07,28,02,55,16.30
2016,07,28,02,56,16.20
2016,07,28,02,57,16.20
2016,07,28,02,58,16.10
2016,07,28,02,59,16.00
2016,07,28,03,00,15.80
2016,07,28,03,01,15.80
2016,07,28,03,02,15.70
2016,07,28,03,03,15.60
2016,07,28,03,04,15.50
2016,07,28,03,05,15.50
2016,07,28,03,06,15.40
2016,07,28,03,07,15.30
2016,07,28,03,08,15.20
2016,07,28,03,09,15.20
2016,07,28,03,10,15.10
2016,07,28,03,11,15.00
2016,07,28,03,12,14.90
2016,07,28,03,13,14.80
2016,07,28,03,14,14.80
2016,07,28,03,15,14.70
2016,07,28,03,16,14.70
2016,07,28,03,17,14.60
2016,07,28,03,18,14.60
2016,07,28,03,19,14.50
2016,07,28,03,20,14.50
2016,07,28,03,21,14.50
2016,07,28,03,22,14.40
2016,07,28,03,23,14.40
2016,07,28,03,24,14.40
2016,07,28,03,25,14.30
2016,07,28,03,26,14.30
2016,07,28,03,27,14.30
2016,07,28,03,28,14.20
2016,07,28,03,29,14.20
2016,07,28,03,30,14.20
2016,07,28,03,31,14.20
2016,07,28,03,32,14.20
2016,07,28,03,33,14.20
2016,07,28,03,34,14.20
2016,07,28,03,35,14.20
2016,07,28,03,36,14.20
2016,07,28,03,37,14.20
2016,07,28,03,38,14.10
2016,07,28,03,39,14.10
2016,07,28,03,40,14.10
2016,07,28,03,41,14.10
2016,07,28,03,42,14.10
2016,07,28,03,43,14.10
2016,07,28,03,44,14.10
2016,07,28,03,45,14.10
2016,07,28,03,46,14.10
2016,07,28,03,47,14.10
2016,07,28,03,48,14.10
2016,07,28,03,49,14.10
2016,07,28,03,50,14.10
2016,07,28,03,51,14.10
2016,07,28,03,52,14.10
2016,07,28,03,53,14.10
2016,07,28,03,54,14.10
2016,07,28,03,55,14.10
2016,07,28,03,56,14.10
2016,07,28,03,57,14.10
2016,07,28,03,58,14.10
2016,07,28,03,59,14.10
2016,07,28,04,00,14.10
2016,07,28,04,01,14.10
2016,07,28,04,02,14.10
2016,07,28,04,03,14.10
2016,07,28,04,04,14.10
2016,07,28,04,05,14.10
2016,07,28,04,06,14.10
2016,07,28,04,07,14.10
2016,07,28,04,08,14.10
2016,07,28,04,09,14.10
2016,07,28,04,10,14.10
2016,07,28,04,11,14.10
2016,07,28,04,12,14.10
2016,07,28,04,13,14.10
2016,07,28,04,14,14.10
2016,07,28,04,15,14.10
2016,07,28,04,16,14.10
2016,07,28,04,17,14.10
2016,07,28,04,18,14.10
2016,07,28,04,19,14.10
2016,07,28,04,20,14.10
2016,07,28,04,21,14.10
2016,07,28,04,22,14.10
2016,07,28,04,23,14.10
2016,07,28,04,24,14.10
2016,07,28,04,25,14.10
2016,07,28,04,26,14.10
2016,07,28,04,27,14.20
2016,07,28,04,28,14.20
2016,07,28,04,29,14.20
2016,07,28,04,30,14.20
2016,07,28,04,31,14.20
2016,07,28,04,32,14.20
2016,07,28,04,33,14.20
2016,07,28,04,34,14.20
2016,07,28,04,35,14.20
2016,07,28,04,36,14.20
2016,07,28,04,37,14.20
2016,07,28,04,38,14.20
2016,07,28,04,39,14.20
2016,07,28,04,40,14.20
2016,07,28,04,41,14.20
2016,07,28,04,42,14.20
2016,07,28,04,43,14.20
2016,07,28,04,44,14.20
2016,07,28,04,45,14.20
2016,07,28,04,46,14.20
2016,07,28,04,47,14.30
2016,07,28,04,48,14.30
2016,07,28,04,49,14.30
2016,07,28,04,50,14.30
2016,07,28,04,51,14.40
2016,07,28,04,52,14.40
2016,07,28,04,53,14.40
2016,07,28,04,54,14.40
2016,07,28,04,55,14.40
2016,07,28,04,56,14.30
2016,07,28,04,57,14.30
2016,07,28,04,58,14.30
2016,07,28,04,59,14.30
2016,07,28,05,00,14.30
2016,07,28,05,01,14.30
2016,07,28,05,02,14.30
2016,07,28,05,03,14.30
2016,07,28,05,04,14.30
2016,07,28,05,05,14.30
2016,07,28,05,06,14.30
2016,07,28,05,07,14.30
2016,07,28,05,08,14.20
2016,07,28,05,09,14.20
2016,07,28,05,10,14.20
2016,07,28,05,11,14.20
2016,07,28,05,12,14.20
2016,07,28,05,13,14.20
2016,07,28,05,14,14.20
2016,07,28,05,15,14.20
2016,07,28,05,16,14.20
2016,07,28,05,17,14.20
2016,07,28,05,18,14.20
2016,07,28,05,19,14.20
2016,07,28,05,20,14.10
2016,07,28,05,21,14.10
2016,07,28,05,22,14.10
2016,07,28,05,23,14.10
2016,07,28,05,24,14.10
2016,07,28,05,25,14.00
2016,07,28,05,26,14.00
2016,07,28,05,27,14.00
2016,07,28,05,28,14.00
2016,07,28,05,29,14.00
2016,07,28,05,30,14.00
2016,07,28,05,31,13.90
2016,07,28,05,32,13.90
2016,07,28,05,33,13.90
2016,07,28,05,34,13.90
2016,07,28,05,35,13.80
2016,07,28,05,36,13.80
2016,07,28,05,37,13.80
2016,07,28,05,38,13.80
2016,07,28,05,39,13.80
2016,07,28,05,40,13.70
2016,07,28,05,41,13.70
2016,07,28,05,42,13.70
2016,07,28,05,43,13.70
2016,07,28,05,44,13.70
2016,07,28,05,45,13.70
2016,07,28,05,46,13.70
2016,07,28,05,47,13.70
2016,07,28,05,48,13.70
2016,07,28,05,49,13.70
2016,07,28,05,50,13.70
2016,07,28,05,51,13.60
2016,07,28,05,52,13.60
2016,07,28,05,53,13.60
2016,07,28,05,54,13.60
2016,07,28,05,55,13.60
2016,07,28,05,56,13.60
2016,07,28,05,57,13.60
2016,07,28,05,58,13.60
2016,07,28,05,59,13.60
2016,07,28,06,00,13.60
2016,07,28,06,01,13.50
2016,07,28,06,02,13.50
2016,07,28,06,03,13.50
2016,07,28,06,04,13.50
2016,07,28,06,05,13.50
2016,07,28,06,06,13.50
2016,07,28,06,07,13.50
2016,07,28,06,08,13.50
2016,07,28,06,09,13.50
2016,07,28,06,10,13.40
2016,07,28,06,11,13.40
2016,07,28,06,12,13.40
2016,07,28,06,13,13.40
2016,07,28,06,14,13.50
2016,07,28,06,15,13.50
2016,07,28,06,16,13.50
2016,07,28,06,17,13.50
2016,07,28,06,18,13.50
2016,07,28,06,19,13.50
2016,07,28,06,20,13.50
2016,07,28,06,21,13.50
2016,07,28,06,22,13.50
2016,07,28,06,23,13.50
2016,07,28,06,24,13.60
2016,07,28,06,25,13.60
2016,07,28,06,26,13.60
2016,07,28,06,27,13.70
2016,07,28,06,28,13.70
2016,07,28,06,29,13.80
2016,07,28,06,30,13.90
2016,07,28,06,31,14.00
2016,07,28,06,32,14.00
2016,07,28,06,33,14.10
2016,07,28,06,34,14.20
2016,07,28,06,35,14.20
2016,07,28,06,36,14.20
2016,07,28,06,37,14.20
2016,07,28,06,38,14.30
2016,07,28,06,39,14.40
2016,07,28,06,40,14.40
2016,07,28,06,41,14.50
2016,07,28,06,42,14.50
2016,07,28,06,43,14.60
2016,07,28,06,44,14.60
2016,07,28,06,45,14.80
2016,07,28,06,46,14.80
2016,07,28,06,47,15.00
2016,07,28,06,48,15.00
2016,07,28,06,49,15.20
2016,07,28,06,50,15.30
2016,07,28,06,51,15.40
2016,07,28,06,52,15.50
2016,07,28,06,53,15.60
2016,07,28,06,54,15.60
2016,07,28,06,55,15.70
2016,07,28,06,56,15.80
2016,07,28,06,57,15.90
2016,07,28,06,58,15.90
2016,07,28,06,59,16.10
2016,07,28,07,00,16.10
2016,07,28,07,01,16.20
2016,07,28,07,02,16.30
2016,07,28,07,03,16.40
2016,07,28,07,04,16.50
2016,07,28,07,05,16.60
2016,07,28,07,06,16.70
2016,07,28,07,07,16.70
2016,07,28,07,08,16.80
2016,07,28,07,09,16.80
2016,07,28,07,10,16.80
2016,07,28,07,11,16.90
2016,07,28,07,12,16.90
2016,07,28,07,13,16.90
2016,07,28,07,14,17.00
2016,07,28,07,15,17.00
2016,07,28,07,16,17.00
2016,07,28,07,17,17.10
2016,07,28,07,18,17.20
2016,07,28,07,19,17.20
2016,07,28,07,20,17.30
2016,07,28,07,21,17.40
2016,07,28,07,22,17.50
2016,07,28,07,23,17.60
2016,07,28,07,24,17.70
2016,07,28,07,25,17.80
2016,07,28,07,26,17.80
2016,07,28,07,27,17.90
2016,07,28,07,28,18.00
2016,07,28,07,29,18.10
2016,07,28,07,30,18.20
2016,07,28,07,31,18.20
2016,07,28,07,32,18.20
2016,07,28,07,33,18.30
2016,07,28,07,34,18.30
2016,07,28,07,35,18.40
2016,07,28,07,36,18.50
2016,07,28,07,37,18.60
2016,07,28,07,38,18.60
2016,07,28,07,39,18.70
2016,07,28,07,40,18.70
2016,07,28,07,41,18.70
2016,07,28,07,42,18.80
2016,07,28,07,43,18.90
2016,07,28,07,44,18.90
2016,07,28,07,45,18.90
2016,07,28,07,46,19.00
2016,07,28,07,47,19.10
2016,07,28,07,48,19.10
2016,07,28,07,49,19.10
2016,07,28,07,50,19.10
2016,07,28,07,51,19.20
2016,07,28,07,52,19.30
2016,07,28,07,53,19.30
2016,07,28,07,54,19.40
2016,07,28,07,55,19.60
2016,07,28,07,56,19.70
2016,07,28,07,57,19.80
2016,07,28,07,58,19.90
2016,07,28,07,59,19.90
2016,07,28,08,00,20.00
2016,07,28,08,01,20.10
2016,07,28,08,02,20.10
2016,07,28,08,03,20.10
2016,07,28,08,04,20.10
2016,07,28,08,05,20.10
2016,07,28,08,06,20.20
2016,07,28,08,07,20.20
2016,07,28,08,08,20.20
2016,07,28,08,09,20.20
2016,07,28,08,10,20.20
2016,07,28,08,11,20.20
2016,07,28,08,12,20.20
2016,07,28,08,13,20.30
2016,07,28,08,14,20.40
2016,07,28,08,15,20.40
2016,07,28,08,16,20.50
2016,07,28,08,17,20.50
2016,07,28,08,18,20.50
2016,07,28,08,19,20.50
2016,07,28,08,20,20.50
2016,07,28,08,21,20.60
2016,07,28,08,22,20.60
2016,07,28,08,23,20.60
2016,07,28,08,24,20.70
2016,07,28,08,25,20.70
2016,07,28,08,26,20.80
2016,07,28,08,27,20.80
2016,07,28,08,28,20.90
2016,07,28,08,29,21.00
2016,07,28,08,30,21.00
2016,07,28,08,31,21.00
2016,07,28,08,32,21.10
2016,07,28,08,33,21.10
2016,07,28,08,34,21.10
2016,07,28,08,35,21.10
2016,07,28,08,36,21.20
2016,07,28,08,37,21.20
2016,07,28,08,38,21.30
2016,07,28,08,39,21.30
2016,07,28,08,40,21.30
2016,07,28,08,41,21.30
2016,07,28,08,42,21.20
2016,07,28,08,43,21.30
2016,07,28,08,44,21.30
2016,07,28,08,45,21.30
2016,07,28,08,46,21.30
2016,07,28,08,47,21.30
2016,07,28,08,48,21.30
2016,07,28,08,49,21.30
2016,07,28,08,50,21.30
2016,07,28,08,51,21.30
2016,07,28,08,52,21.30
2016,07,28,08,53,21.40
2016,07,28,08,54,21.50
2016,07,28,08,55,21.60
2016,07,28,08,56,21.60
2016,07,28,08,57,21.40
2016,07,28,08,58,21.30
2016,07,28,08,59,21.30
2016,07,28,09,00,21.20
2016,07,28,09,01,21.10
2016,07,28,09,02,21.00
2016,07,28,09,03,21.00
2016,07,28,09,04,21.00
2016,07,28,09,05,21.00
2016,07,28,09,06,20.90
2016,07,28,09,07,21.00
2016,07,28,09,08,21.00
2016,07,28,09,09,21.00
2016,07,28,09,10,21.00
2016,07,28,09,11,21.00
2016,07,28,09,12,20.90
2016,07,28,09,13,20.80
2016,07,28,09,14,20.70
2016,07,28,09,15,20.50
2016,07,28,09,16,20.40
2016,07,28,09,17,20.40
2016,07,28,09,18,20.40
2016,07,28,09,19,20.40
2016,07,28,09,20,20.40
2016,07,28,09,21,20.50
2016,07,28,09,22,20.50
2016,07,28,09,23,20.50
2016,07,28,09,24,20.50
2016,07,28,09,25,20.50
2016,07,28,09,26,20.40
2016,07,28,09,27,20.30
2016,07,28,09,28,20.30
2016,07,28,09,29,20.40
2016,07,28,09,30,20.40
2016,07,28,09,31,20.40
2016,07,28,09,32,20.40
2016,07,28,09,33,20.40
2016,07,28,09,34,20.30
2016,07,28,09,35,20.30
2016,07,28,09,36,20.20
2016,07,28,09,37,20.20
2016,07,28,09,38,20.10
2016,07,28,09,39,20.10
2016,07,28,09,40,20.20
2016,07,28,09,41,20.20
2016,07,28,09,42,20.20
2016,07,28,09,43,20.20
2016,07,28,09,44,20.20
2016,07,28,09,45,20.20
2016,07,28,09,46,20.20
2016,07,28,09,47,20.30
2016,07,28,09,48,20.30
2016,07,28,09,49,20.30
2016,07,28,09,50,20.30
2016,07,28,09,51,20.40
2016,07,28,09,52,20.50
2016,07,28,09,53,20.50
2016,07,28,09,54,20.70
2016,07,28,09,55,20.70
2016,07,28,09,56,20.80
2016,07,28,09,57,20.80
2016,07,28,09,58,20.90
2016,07,28,09,59,20.80
2016,07,28,10,00,20.80
2016,07,28,10,01,20.70
2016,07,28,10,02,20.60
2016,07,28,10,03,20.70
2016,07,28,10,04,20.70
2016,07,28,10,05,20.80
2016,07,28,10,06,20.80
2016,07,28,10,07,21.00
2016,07,28,10,08,21.10
2016,07,28,10,09,21.30
2016,07,28,10,10,21.60
2016,07,28,10,11,21.70
2016,07,28,10,12,21.80
2016,07,28,10,13,22.00
2016,07,28,10,14,22.10
2016,07,28,10,15,22.20
2016,07,28,10,16,22.30
2016,07,28,10,17,22.30
2016,07,28,10,18,22.30
2016,07,28,10,19,22.40
2016,07,28,10,20,22.50
2016,07,28,10,21,22.50
2016,07,28,10,22,22.50
2016,07,28,10,23,22.60
2016,07,28,10,24,22.60
2016,07,28,10,25,22.60
2016,07,28,10,26,22.60
2016,07,28,10,27,22.50
2016,07,28,10,28,22.50
2016,07,28,10,29,22.60
2016,07,28,10,30,22.70
2016,07,28,10,31,22.80
2016,07,28,10,32,22.90
2016,07,28,10,33,22.90
2016,07,28,10,34,22.90
2016,07,28,10,35,23.00
2016,07,28,10,36,23.10
2016,07,28,10,37,23.10
2016,07,28,10,38,23.10
2016,07,28,10,39,23.00
2016,07,28,10,40,22.90
2016,07,28,10,41,23.10
2016,07,28,10,42,23.00
2016,07,28,10,43,22.90
2016,07,28,10,44,22.90
2016,07,28,10,45,22.90
2016,07,28,10,46,22.90
2016,07,28,10,47,22.80
2016,07,28,10,48,22.80
2016,07,28,10,49,22.80
2016,07,28,10,50,22.80
2016,07,28,10,51,22.90
2016,07,28,10,52,22.80
2016,07,28,10,53,22.70
2016,07,28,10,54,22.70
2016,07,28,10,55,22.60
2016,07,28,10,56,22.60
2016,07,28,10,57,22.70
2016,07,28,10,58,22.80
2016,07,28,10,59,22.90
2016,07,28,11,00,23.00
2016,07,28,11,01,22.90
2016,07,28,11,02,22.90
2016,07,28,11,03,22.80
2016,07,28,11,04,22.70
2016,07,28,11,05,22.60
2016,07,28,11,06,22.60
2016,07,28,11,07,22.60
2016,07,28,11,08,22.60
2016,07,28,11,09,22.60
2016,07,28,11,10,22.60
2016,07,28,11,11,22.80
2016,07,28,11,12,22.80
2016,07,28,11,13,22.70
2016,07,28,11,14,22.70
2016,07,28,11,15,22.80
2016,07,28,11,16,22.70
2016,07,28,11,17,22.80
2016,07,28,11,18,22.70
2016,07,28,11,19,22.70
2016,07,28,11,20,22.70
2016,07,28,11,21,22.70
2016,07,28,11,22,22.70
2016,07,28,11,23,22.80
2016,07,28,11,24,22.80
2016,07,28,11,25,22.90
2016,07,28,11,26,23.00
2016,07,28,11,27,23.20
2016,07,28,11,28,23.20
2016,07,28,11,29,23.30
2016,07,28,11,30,23.30
2016,07,28,11,31,23.20
2016,07,28,11,32,23.00
2016,07,28,11,33,22.90
2016,07,28,11,34,22.70
2016,07,28,11,35,22.70
2016,07,28,11,36,22.80
2016,07,28,11,37,22.80
2016,07,28,11,38,22.90
2016,07,28,11,39,22.90
2016,07,28,11,40,22.80
2016,07,28,11,41,22.60
2016,07,28,11,42,22.40
2016,07,28,11,43,22.40
2016,07,28,11,44,22.20
2016,07,28,11,45,22.10
2016,07,28,11,46,22.10
2016,07,28,11,47,22.20
2016,07,28,11,48,22.20
2016,07,28,11,49,22.20
2016,07,28,11,50,22.20
2016,07,28,11,51,22.20
2016,07,28,11,52,22.00
2016,07,28,11,53,22.00
2016,07,28,11,54,21.90
2016,07,28,11,55,22.00
2016,07,28,11,56,22.10
2016,07,28,11,57,22.10
2016,07,28,11,58,22.00
2016,07,28,11,59,21.80
2016,07,28,12,00,21.70
2016,07,28,12,01,21.70
2016,07,28,12,02,21.70
2016,07,28,12,03,21.80
2016,07,28,12,04,22.00
2016,07,28,12,05,22.10
2016,07,28,12,06,22.10
2016,07,28,12,07,22.20
2016,07,28,12,08,22.30
2016,07,28,12,09,22.20
2016,07,28,12,10,22.00
2016,07,28,12,11,21.90
2016,07,28,12,12,21.80
2016,07,28,12,13,21.90
2016,07,28,12,14,21.80
2016,07,28,12,15,21.80
2016,07,28,12,16,21.70
2016,07,28,12,17,21.60
2016,07,28,12,18,21.50
2016,07,28,12,19,21.40
2016,07,28,12,20,21.40
2016,07,28,12,21,21.60
2016,07,28,12,22,21.60
2016,07,28,12,23,21.80
2016,07,28,12,24,22.00
2016,07,28,12,25,22.10
2016,07,28,12,26,22.20
2016,07,28,12,27,22.20
2016,07,28,12,28,22.10
2016,07,28,12,29,22.10
2016,07,28,12,30,22.20
2016,07,28,12,31,22.30
2016,07,28,12,32,22.20
2016,07,28,12,33,22.10
2016,07,28,12,34,22.10
2016,07,28,12,35,22.10
2016,07,28,12,36,22.00
2016,07,28,12,37,22.00
2016,07,28,12,38,21.90
2016,07,28,12,39,22.00
2016,07,28,12,40,22.10
2016,07,28,12,41,22.30
2016,07,28,12,42,22.30
2016,07,28,12,43,22.30
2016,07,28,12,44,22.30
2016,07,28,12,45,22.40
2016,07,28,12,46,22.50
2016,07,28,12,47,22.60
2016,07,28,12,48,22.60
2016,07,28,12,49,22.70
2016,07,28,12,50,22.70
2016,07,28,12,51,22.80
2016,07,28,12,52,22.60
2016,07,28,12,53,22.50
2016,07,28,12,54,22.30
2016,07,28,12,55,22.30
2016,07,28,12,56,22.40
2016,07,28,12,57,22.50
2016,07,28,12,58,22.60
2016,07,28,12,59,22.60
2016,07,28,13,00,22.70
2016,07,28,13,01,22.70
2016,07,28,13,02,22.60
2016,07,28,13,03,22.50
2016,07,28,13,04,22.50
2016,07,28,13,05,22.50
2016,07,28,13,06,22.50
2016,07,28,13,07,22.60
2016,07,28,13,08,22.70
2016,07,28,13,09,22.80
2016,07,28,13,10,22.90
2016,07,28,13,11,22.90
2016,07,28,13,12,22.90
2016,07,28,13,13,22.80
2016,07,28,13,14,22.70
2016,07,28,13,15,22.70
2016,07,28,13,16,22.60
2016,07,28,13,17,22.50
2016,07,28,13,18,22.60
2016,07,28,13,19,22.60
2016,07,28,13,20,22.60
2016,07,28,13,21,22.70
2016,07,28,13,22,22.70
2016,07,28,13,23,22.70
2016,07,28,13,24,22.80
2016,07,28,13,25,22.90
2016,07,28,13,26,23.00
2016,07,28,13,27,23.10
2016,07,28,13,28,23.20
2016,07,28,13,29,23.00
2016,07,28,13,30,22.90
2016,07,28,13,31,22.90
2016,07,28,13,32,22.90
2016,07,28,13,33,22.90
2016,07,28,13,34,23.10
2016,07,28,13,35,23.20
2016,07,28,13,36,23.30
2016,07,28,13,37,23.50
2016,07,28,13,38,23.60
2016,07,28,13,39,23.70
2016,07,28,13,40,23.70
2016,07,28,13,41,23.60
2016,07,28,13,42,23.70
2016,07,28,13,43,23.70
2016,07,28,13,44,23.70
2016,07,28,13,45,23.70
2016,07,28,13,46,23.70
2016,07,28,13,47,23.70
2016,07,28,13,48,23.70
2016,07,28,13,49,23.80
2016,07,28,13,50,23.90
2016,07,28,13,51,23.90
2016,07,28,13,52,23.90
2016,07,28,13,53,23.90
2016,07,28,13,54,23.90
2016,07,28,13,55,23.70
2016,07,28,13,56,23.60
2016,07,28,13,57,23.60
2016,07,28,13,58,23.40
2016,07,28,13,59,23.40
2016,07,28,14,00,23.30
2016,07,28,14,01,23.30
2016,07,28,14,02,23.40
2016,07,28,14,03,23.40
2016,07,28,14,04,23.40
2016,07,28,14,05,23.50
2016,07,28,14,06,23.60
2016,07,28,14,07,23.60
2016,07,28,14,08,23.70
2016,07,28,14,09,23.80
2016,07,28,14,10,23.90
2016,07,28,14,11,23.90
2016,07,28,14,12,23.90
2016,07,28,14,13,23.90
2016,07,28,14,14,23.90
2016,07,28,14,15,24.10
2016,07,28,14,16,24.10
2016,07,28,14,17,24.10
2016,07,28,14,18,24.10
2016,07,28,14,19,24.10
2016,07,28,14,20,24.20
2016,07,28,14,21,24.30
2016,07,28,14,22,24.40
2016,07,28,14,23,24.40
2016,07,28,14,24,24.50
2016,07,28,14,25,24.50
2016,07,28,14,26,24.60
2016,07,28,14,27,24.60
2016,07,28,14,28,24.70
2016,07,28,14,29,24.70
2016,07,28,14,30,24.80
2016,07,28,14,31,24.80
2016,07,28,14,32,24.70
2016,07,28,14,33,24.60
2016,07,28,14,34,24.70
2016,07,28,14,35,24.70
2016,07,28,14,36,24.80
2016,07,28,14,37,24.80
2016,07,28,14,38,24.80
2016,07,28,14,39,24.80
2016,07,28,14,40,24.90
2016,07,28,14,41,24.90
2016,07,28,14,42,24.90
2016,07,28,14,43,24.90
2016,07,28,14,44,24.90
2016,07,28,14,45,24.80
2016,07,28,14,46,24.80
2016,07,28,14,47,24.80
2016,07,28,14,48,24.70
2016,07,28,14,49,24.50
2016,07,28,14,50,24.50
2016,07,28,14,51,24.50
2016,07,28,14,52,24.60
2016,07,28,14,53,24.80
2016,07,28,14,54,24.90
2016,07,28,14,55,25.00
2016,07,28,14,56,24.90
2016,07,28,14,57,24.80
2016,07,28,14,58,24.70
2016,07,28,14,59,24.70
2016,07,28,15,00,24.60
2016,07,28,15,01,24.70
2016,07,28,15,02,24.70
2016,07,28,15,03,24.70
2016,07,28,15,04,24.70
2016,07,28,15,05,24.60
2016,07,28,15,06,24.60
2016,07,28,15,07,24.60
2016,07,28,15,08,24.60
2016,07,28,15,09,24.70
2016,07,28,15,10,24.70
2016,07,28,15,11,24.70
2016,07,28,15,12,24.70
2016,07,28,15,13,24.60
2016,07,28,15,14,24.60
2016,07,28,15,15,24.70
2016,07,28,15,16,24.70
2016,07,28,15,17,24.80
2016,07,28,15,18,24.90
2016,07,28,15,19,24.80
2016,07,28,15,20,24.80
2016,07,28,15,21,24.90
2016,07,28,15,22,24.90
2016,07,28,15,23,24.90
2016,07,28,15,24,24.80
2016,07,28,15,25,24.80
2016,07,28,15,26,24.70
2016,07,28,15,27,24.70
2016,07,28,15,28,24.60
2016,07,28,15,29,24.60
2016,07,28,15,30,24.50
2016,07,28,15,31,24.50
2016,07,28,15,32,24.50
2016,07,28,15,33,24.70
2016,07,28,15,34,24.80
2016,07,28,15,35,24.90
2016,07,28,15,36,24.90
2016,07,28,15,37,24.80
2016,07,28,15,38,24.80
2016,07,28,15,39,24.80
2016,07,28,15,40,24.90
2016,07,28,15,41,24.90
2016,07,28,15,42,25.10
2016,07,28,15,43,25.30
2016,07,28,15,44,25.20
2016,07,28,15,45,25.20
2016,07,28,15,46,25.20
2016,07,28,15,47,25.30
2016,07,28,15,48,25.40
2016,07,28,15,49,25.50
2016,07,28,15,50,25.50
2016,07,28,15,51,25.40
2016,07,28,15,52,25.30
2016,07,28,15,53,25.30
2016,07,28,15,54,25.20
2016,07,28,15,55,25.20
2016,07,28,15,56,25.20
2016,07,28,15,57,25.20
2016,07,28,15,58,25.30
2016,07,28,15,59,25.40
2016,07,28,16,00,25.50
2016,07,28,16,01,25.60
2016,07,28,16,02,25.60
2016,07,28,16,03,25.60
2016,07,28,16,04,25.60
2016,07,28,16,05,25.50
2016,07,28,16,06,25.50
2016,07,28,16,07,25.40
2016,07,28,16,08,25.30
2016,07,28,16,09,25.30
2016,07,28,16,10,25.30
2016,07,28,16,11,25.20
2016,07,28,16,12,25.10
2016,07,28,16,13,25.00
2016,07,28,16,14,25.00
2016,07,28,16,15,25.00
2016,07,28,16,16,25.00
2016,07,28,16,17,25.00
2016,07,28,16,18,25.10
2016,07,28,16,19,25.10
2016,07,28,16,20,25.10
2016,07,28,16,21,25.20
2016,07,28,16,22,25.30
2016,07,28,16,23,25.40
2016,07,28,16,24,25.40
2016,07,28,16,25,25.30
2016,07,28,16,26,25.20
2016,07,28,16,27,25.20
2016,07,28,16,28,25.20
2016,07,28,16,29,25.10
2016,07,28,16,30,25.10
2016,07,28,16,31,25.00
2016,07,28,16,32,24.90
2016,07,28,16,33,24.90
2016,07,28,16,34,24.90
2016,07,28,16,35,25.00
2016,07,28,16,36,25.10
2016,07,28,16,37,25.10
2016,07,28,16,38,25.00
2016,07,28,16,39,25.00
2016,07,28,16,40,25.00
2016,07,28,16,41,25.10
2016,07,28,16,42,25.10
2016,07,28,16,43,25.10
2016,07,28,16,44,25.20
2016,07,28,16,45,25.20
2016,07,28,16,46,25.30
2016,07,28,16,47,25.40
2016,07,28,16,48,25.40
2016,07,28,16,49,25.50
2016,07,28,16,50,25.60
2016,07,28,16,51,25.70
2016,07,28,16,52,25.80
2016,07,28,16,53,25.80
2016,07,28,16,54,25.80
2016,07,28,16,55,25.70
2016,07,28,16,56,25.60
2016,07,28,16,57,25.60
2016,07,28,16,58,25.60
2016,07,28,16,59,25.60
2016,07,28,17,00,25.70
2016,07,28,17,01,25.60
2016,07,28,17,02,25.70
2016,07,28,17,03,25.80
2016,07,28,17,04,25.80
2016,07,28,17,05,25.70
2016,07,28,17,06,25.60
2016,07,28,17,07,25.60
2016,07,28,17,08,25.60
2016,07,28,17,09,25.60
2016,07,28,17,10,25.70
2016,07,28,17,11,25.80
2016,07,28,17,12,25.80
2016,07,28,17,13,25.80
2016,07,28,17,14,25.80
2016,07,28,17,15,25.70
2016,07,28,17,16,25.60
2016,07,28,17,17,25.60
2016,07,28,17,18,25.60
2016,07,28,17,19,25.60